Time,TemperatureF,DewpointF,PressureIn,WindDirection,WindDirectionDegrees,WindSpeedMPH,WindSpeedGustMPH,Humidity,HourlyPrecipIn,Conditions,Clouds,dailyrainin,SolarRadiationWatts/m^2,SoftwareType,DateUTC
2013-02-15 00:01:00,37.0,13.0,-100.00,ENE,73,0.0,8.0,36,0.00,,,0.00,0.000000,,2013-02-15 08:01:00,
2013-02-15 00:21:00,33.0,11.0,-100.00,East,99,0.0,7.0,39,0.00,,,0.00,0.000000,,2013-02-15 08:21:00,
2013-02-15 00:32:00,33.0,11.0,-100.00,East,99,0.0,7.0,39,0.00,,,0.00,0.000000,,2013-02-15 08:32:00,
2013-02-15 00:42:00,33.0,11.0,-100.00,East,99,0.0,7.0,39,0.00,,,0.00,0.000000,,2013-02-15 08:42:00,
2013-02-15 00:53:00,33.0,11.0,-100.00,East,99,0.0,7.0,39,0.00,,,0.00,0.000000,,2013-02-15 08:53:00,
2013-02-15 01:01:00,33.0,11.0,-100.00,East,99,0.0,7.0,39,0.00,,,0.00,0.000000,,2013-02-15 09:01:00,
2013-02-15 01:22:00,33.0,11.0,-100.00,East,87,0.0,7.0,40,-99.99,,,0.00,0.000000,,2013-02-15 09:22:00,
2013-02-15 01:32:00,33.0,11.0,-100.00,East,87,0.0,7.0,40,-99.99,,,0.00,0.000000,,2013-02-15 09:32:00,
2013-02-15 01:42:00,33.0,11.0,-100.00,East,87,0.0,7.0,40,-99.99,,,0.00,0.000000,,2013-02-15 09:42:00,
2013-02-15 01:52:00,33.0,11.0,-100.00,East,87,0.0,7.0,40,-99.99,,,0.00,0.000000,,2013-02-15 09:52:00,
2013-02-15 02:01:00,33.0,11.0,-100.00,East,87,0.0,7.0,40,-99.99,,,0.00,0.000000,,2013-02-15 10:01:00,
2013-02-15 02:32:00,34.0,11.0,-100.00,East,98,1.0,5.0,37,0.00,,,0.00,0.000000,,2013-02-15 10:32:00,
2013-02-15 02:42:00,34.0,11.0,-100.00,East,98,1.0,5.0,37,0.00,,,0.00,0.000000,,2013-02-15 10:42:00,
2013-02-15 02:52:00,34.0,11.0,-100.00,East,98,1.0,5.0,37,0.00,,,0.00,0.000000,,2013-02-15 10:52:00,
2013-02-15 03:01:00,34.0,11.0,-100.00,East,98,1.0,5.0,37,0.00,,,0.00,0.000000,,2013-02-15 11:01:00,
2013-02-15 03:32:00,33.0,8.0,-100.00,South,185,0.0,6.0,34,-99.99,,,0.00,0.000000,,2013-02-15 11:32:00,
2013-02-15 03:42:00,33.0,8.0,-100.00,South,185,0.0,6.0,34,-99.99,,,0.00,0.000000,,2013-02-15 11:42:00,
2013-02-15 03:52:00,33.0,8.0,-100.00,South,185,0.0,6.0,34,-99.99,,,0.00,0.000000,,2013-02-15 11:52:00,
2013-02-15 04:01:00,33.0,8.0,-100.00,South,185,0.0,6.0,34,-99.99,,,0.00,0.000000,,2013-02-15 12:01:00,
2013-02-15 04:02:00,32.0,7.0,-100.00,ENE,74,0.0,10.0,34,0.00,,,0.00,0.000000,,2013-02-15 12:02:00,
2013-02-15 04:22:00,32.0,7.0,-100.00,ENE,74,0.0,10.0,34,0.00,,,0.00,0.000000,,2013-02-15 12:22:00,
2013-02-15 04:32:00,32.0,7.0,-100.00,ENE,74,0.0,10.0,34,0.00,,,0.00,0.000000,,2013-02-15 12:32:00,
2013-02-15 04:42:00,32.0,7.0,-100.00,ENE,74,0.0,10.0,34,0.00,,,0.00,0.000000,,2013-02-15 12:42:00,
2013-02-15 04:52:00,32.0,7.0,-100.00,ENE,74,0.0,10.0,34,0.00,,,0.00,0.000000,,2013-02-15 12:52:00,
2013-02-15 05:22:00,32.0,7.0,-100.00,ESE,108,0.0,8.0,35,0.00,,,0.00,0.000000,,2013-02-15 13:22:00,
2013-02-15 05:32:00,32.0,7.0,-100.00,ESE,108,0.0,8.0,35,0.00,,,0.00,0.000000,,2013-02-15 13:32:00,
2013-02-15 05:42:00,32.0,7.0,-100.00,ESE,108,0.0,8.0,35,0.00,,,0.00,0.000000,,2013-02-15 13:42:00,
2013-02-15 05:52:00,32.0,7.0,-100.00,ESE,108,0.0,8.0,35,0.00,,,0.00,0.000000,,2013-02-15 13:52:00,
2013-02-15 06:01:00,32.0,7.0,-100.00,ESE,108,0.0,8.0,35,0.00,,,0.00,0.000000,,2013-02-15 14:01:00,
2013-02-15 06:32:00,32.0,9.0,-100.00,ESE,109,0.0,5.0,38,0.00,,,0.00,0.000000,,2013-02-15 14:32:00,
2013-02-15 06:42:00,32.0,9.0,-100.00,ESE,109,0.0,5.0,38,0.00,,,0.00,0.000000,,2013-02-15 14:42:00,
2013-02-15 06:52:00,32.0,9.0,-100.00,ESE,109,0.0,5.0,38,0.00,,,0.00,0.000000,,2013-02-15 14:52:00,
2013-02-15 07:01:00,32.0,9.0,-100.00,ESE,109,0.0,5.0,38,0.00,,,0.00,0.000000,,2013-02-15 15:01:00,
2013-02-15 07:32:00,33.0,8.0,-100.00,East,99,0.0,6.0,35,0.00,,,0.00,1.000000,,2013-02-15 15:32:00,
2013-02-15 07:42:00,33.0,8.0,-100.00,East,99,0.0,6.0,35,0.00,,,0.00,1.000000,,2013-02-15 15:42:00,
2013-02-15 07:52:00,33.0,8.0,-100.00,East,99,0.0,6.0,35,0.00,,,0.00,1.000000,,2013-02-15 15:52:00,
2013-02-15 08:01:00,33.0,8.0,-100.00,East,99,0.0,6.0,35,0.00,,,0.00,1.000000,,2013-02-15 16:01:00,
2013-02-15 08:32:00,35.0,10.0,-100.00,SE,127,0.0,5.0,35,0.00,,,0.00,32.000000,,2013-02-15 16:32:00,
2013-02-15 08:43:00,35.0,10.0,-100.00,SE,127,0.0,5.0,35,0.00,,,0.00,32.000000,,2013-02-15 16:43:00,
2013-02-15 08:52:00,35.0,10.0,-100.00,SE,127,0.0,5.0,35,0.00,,,0.00,32.000000,,2013-02-15 16:52:00,
2013-02-15 09:01:00,35.0,10.0,-100.00,SE,127,0.0,5.0,35,0.00,,,0.00,32.000000,,2013-02-15 17:01:00,
2013-02-15 09:32:00,39.0,14.0,-100.00,SSE,152,0.0,3.0,36,0.00,,,0.00,40.000000,,2013-02-15 17:32:00,
2013-02-15 09:42:00,39.0,14.0,-100.00,SSE,152,0.0,3.0,36,0.00,,,0.00,40.000000,,2013-02-15 17:42:00,
2013-02-15 09:52:00,39.0,14.0,-100.00,SSE,152,0.0,3.0,36,0.00,,,0.00,40.000000,,2013-02-15 17:52:00,
2013-02-15 10:01:00,39.0,14.0,-100.00,SSE,152,0.0,3.0,36,0.00,,,0.00,40.000000,,2013-02-15 18:01:00,
2013-02-15 10:32:00,51.0,22.0,-100.00,SSW,202,0.0,0.0,32,0.00,,,0.00,67.000000,,2013-02-15 18:32:00,
2013-02-15 10:42:00,51.0,22.0,-100.00,SSW,202,0.0,0.0,32,0.00,,,0.00,67.000000,,2013-02-15 18:42:00,
2013-02-15 10:52:00,51.0,22.0,-100.00,SSW,202,0.0,0.0,32,0.00,,,0.00,67.000000,,2013-02-15 18:52:00,
2013-02-15 11:01:00,51.0,22.0,-100.00,SSW,202,0.0,0.0,32,0.00,,,0.00,67.000000,,2013-02-15 19:01:00,
2013-02-15 11:32:00,65.0,15.0,-100.00,ENE,77,0.0,3.0,14,0.00,,,0.00,665.000000,,2013-02-15 19:32:00,
2013-02-15 11:42:00,65.0,15.0,-100.00,ENE,77,0.0,3.0,14,0.00,,,0.00,665.000000,,2013-02-15 19:42:00,
2013-02-15 11:52:00,65.0,15.0,-100.00,ENE,77,0.0,3.0,14,0.00,,,0.00,665.000000,,2013-02-15 19:52:00,
2013-02-15 12:01:00,65.0,15.0,-100.00,ENE,77,0.0,3.0,14,0.00,,,0.00,665.000000,,2013-02-15 20:01:00,
2013-02-15 12:22:00,63.0,18.0,-100.00,NW,322,4.0,8.0,17,-99.99,,,0.00,796.000000,,2013-02-15 20:22:00,
2013-02-15 12:32:00,63.0,18.0,-100.00,NW,322,4.0,8.0,17,-99.99,,,0.00,796.000000,,2013-02-15 20:32:00,
2013-02-15 12:42:00,63.0,18.0,-100.00,NW,322,4.0,8.0,17,-99.99,,,0.00,796.000000,,2013-02-15 20:42:00,
2013-02-15 12:52:00,63.0,18.0,-100.00,NW,322,4.0,8.0,17,-99.99,,,0.00,796.000000,,2013-02-15 20:52:00,
2013-02-15 13:01:00,63.0,18.0,-100.00,NW,322,4.0,8.0,17,-99.99,,,0.00,796.000000,,2013-02-15 21:01:00,
2013-02-15 13:32:00,65.0,20.0,-100.00,NNE,19,2.0,10.0,18,0.00,,,0.00,806.000000,,2013-02-15 21:32:00,
2013-02-15 13:42:00,65.0,20.0,-100.00,NNE,19,2.0,10.0,18,0.00,,,0.00,806.000000,,2013-02-15 21:42:00,
2013-02-15 13:52:00,65.0,20.0,-100.00,NNE,19,2.0,10.0,18,0.00,,,0.00,806.000000,,2013-02-15 21:52:00,
2013-02-15 14:01:00,65.0,20.0,-100.00,NNE,19,2.0,10.0,18,0.00,,,0.00,806.000000,,2013-02-15 22:01:00,
2013-02-15 14:02:00,66.0,24.0,-100.00,North,353,1.0,11.0,20,0.00,,,0.00,746.000000,,2013-02-15 22:02:00,
2013-02-15 14:32:00,66.0,24.0,-100.00,North,353,1.0,11.0,20,0.00,,,0.00,746.000000,,2013-02-15 22:32:00,
2013-02-15 14:42:00,66.0,24.0,-100.00,North,353,1.0,11.0,20,0.00,,,0.00,746.000000,,2013-02-15 22:42:00,
2013-02-15 14:52:00,66.0,24.0,-100.00,North,353,1.0,11.0,20,0.00,,,0.00,746.000000,,2013-02-15 22:52:00,
2013-02-15 15:32:00,64.0,23.0,-100.00,NNW,342,3.0,9.0,21,-99.99,,,0.00,621.000000,,2013-02-15 23:32:00,
2013-02-15 15:42:00,64.0,23.0,-100.00,NNW,342,3.0,9.0,21,-99.99,,,0.00,621.000000,,2013-02-15 23:42:00,
2013-02-15 15:52:00,64.0,23.0,-100.00,NNW,342,3.0,9.0,21,-99.99,,,0.00,621.000000,,2013-02-15 23:52:00,
2013-02-15 16:01:00,64.0,23.0,-100.00,NNW,342,3.0,9.0,21,-99.99,,,0.00,621.000000,,2013-02-16 00:01:00,
2013-02-15 16:02:00,61.0,22.0,-100.00,NNW,337,2.0,9.0,22,0.00,,,0.00,437.000000,,2013-02-16 00:02:00,
2013-02-15 16:22:00,61.0,22.0,-100.00,NNW,337,2.0,9.0,22,0.00,,,0.00,437.000000,,2013-02-16 00:22:00,
2013-02-15 16:32:00,61.0,22.0,-100.00,NNW,337,2.0,9.0,22,0.00,,,0.00,437.000000,,2013-02-16 00:32:00,
2013-02-15 16:42:00,61.0,22.0,-100.00,NNW,337,2.0,9.0,22,0.00,,,0.00,437.000000,,2013-02-16 00:42:00,
2013-02-15 16:52:00,61.0,22.0,-100.00,NNW,337,2.0,9.0,22,0.00,,,0.00,437.000000,,2013-02-16 00:52:00,
2013-02-15 17:32:00,54.0,22.0,-100.00,WNW,289,0.0,7.0,28,0.00,,,0.00,184.000000,,2013-02-16 01:32:00,
2013-02-15 17:42:00,54.0,22.0,-100.00,WNW,289,0.0,7.0,28,0.00,,,0.00,184.000000,,2013-02-16 01:42:00,
2013-02-15 17:52:00,54.0,22.0,-100.00,WNW,289,0.0,7.0,28,0.00,,,0.00,184.000000,,2013-02-16 01:52:00,
2013-02-15 18:01:00,54.0,22.0,-100.00,WNW,289,0.0,7.0,28,0.00,,,0.00,184.000000,,2013-02-16 02:01:00,
2013-02-15 18:22:00,44.0,23.0,-100.00,ESE,111,0.0,0.0,43,0.00,,,0.00,8.000000,,2013-02-16 02:22:00,
2013-02-15 18:32:00,44.0,23.0,-100.00,ESE,111,0.0,0.0,43,0.00,,,0.00,8.000000,,2013-02-16 02:32:00,
2013-02-15 18:42:00,44.0,23.0,-100.00,ESE,111,0.0,0.0,43,0.00,,,0.00,8.000000,,2013-02-16 02:42:00,
2013-02-15 18:52:00,44.0,23.0,-100.00,ESE,111,0.0,0.0,43,0.00,,,0.00,8.000000,,2013-02-16 02:52:00,
2013-02-15 19:01:00,44.0,23.0,-100.00,ESE,111,0.0,0.0,43,0.00,,,0.00,8.000000,,2013-02-16 03:01:00,
2013-02-15 19:32:00,39.0,21.0,-100.00,East,88,0.0,5.0,48,0.00,,,0.00,0.000000,,2013-02-16 03:32:00,
2013-02-15 19:42:00,39.0,21.0,-100.00,East,88,0.0,5.0,48,0.00,,,0.00,0.000000,,2013-02-16 03:42:00,
2013-02-15 19:52:00,39.0,21.0,-100.00,East,88,0.0,5.0,48,0.00,,,0.00,0.000000,,2013-02-16 03:52:00,
2013-02-15 20:01:00,39.0,21.0,-100.00,East,88,0.0,5.0,48,0.00,,,0.00,0.000000,,2013-02-16 04:01:00,
2013-02-15 20:32:00,36.0,19.0,-100.00,East,100,0.0,3.0,50,0.00,,,0.00,0.000000,,2013-02-16 04:32:00,
2013-02-15 20:42:00,36.0,19.0,-100.00,East,100,0.0,3.0,50,0.00,,,0.00,0.000000,,2013-02-16 04:42:00,
2013-02-15 20:52:00,36.0,19.0,-100.00,East,100,0.0,3.0,50,0.00,,,0.00,0.000000,,2013-02-16 04:52:00,
2013-02-15 21:01:00,36.0,19.0,-100.00,East,100,0.0,3.0,50,0.00,,,0.00,0.000000,,2013-02-16 05:01:00,
2013-02-15 21:32:00,37.0,21.0,-100.00,East,93,0.0,3.0,53,0.00,,,0.00,0.000000,,2013-02-16 05:32:00,
2013-02-15 21:42:00,37.0,21.0,-100.00,East,93,0.0,3.0,53,0.00,,,0.00,0.000000,,2013-02-16 05:42:00,
2013-02-15 21:52:00,37.0,21.0,-100.00,East,93,0.0,3.0,53,0.00,,,0.00,0.000000,,2013-02-16 05:52:00,
2013-02-15 22:01:00,37.0,21.0,-100.00,East,93,0.0,3.0,53,0.00,,,0.00,0.000000,,2013-02-16 06:01:00,
2013-02-15 22:02:00,35.0,16.0,-100.00,East,90,0.0,4.0,46,0.00,,,0.00,0.000000,,2013-02-16 06:02:00,
2013-02-15 22:22:00,35.0,16.0,-100.00,East,90,0.0,4.0,46,0.00,,,0.00,0.000000,,2013-02-16 06:22:00,
2013-02-15 22:32:00,35.0,16.0,-100.00,East,90,0.0,4.0,46,0.00,,,0.00,0.000000,,2013-02-16 06:32:00,
2013-02-15 22:42:00,35.0,16.0,-100.00,East,90,0.0,4.0,46,0.00,,,0.00,0.000000,,2013-02-16 06:42:00,
2013-02-15 22:52:00,35.0,16.0,-100.00,East,90,0.0,4.0,46,0.00,,,0.00,0.000000,,2013-02-16 06:52:00,
2013-02-15 23:32:00,36.0,15.0,-100.00,East,84,1.0,4.0,41,0.00,,,0.00,0.000000,,2013-02-16 07:32:00,
2013-02-15 23:42:00,36.0,15.0,-100.00,East,84,1.0,4.0,41,0.00,,,0.00,0.000000,,2013-02-16 07:42:00,
2013-02-15 23:53:00,36.0,15.0,-100.00,East,84,1.0,4.0,41,0.00,,,0.00,0.000000,,2013-02-16 07:53:00,